QPF
0.18 0.22 0.30 0.25 0.22 0.08 0.06 0.06 0.05 0.03 0.03 0.05 0.06 0.05 0.05 0.05 0.05 0.06 0.04 0.03 0.03 0.04 0.03 0.05 0.05 0.07 0.07 0.07 0.08 0.06 0.05 0.03 0.03 0.03 0.04 0.04 0.03 0.03 0.03 0.05 0.02 0.01 0.02
0.12 0.21 0.27 0.22 0.22 0.07 0.05 0.05 0.05 0.04 0.03 0.04 0.06 0.04 0.04 0.05 0.07 0.07 0.04 0.04 0.05 0.05 0.04 0.04 0.04 0.05 0.06 0.08 0.09 0.07 0.04 0.03 0.02 0.03 0.05 0.05 0.04 0.03 0.04 0.03 0.02 0.02 0.02
0.06 0.11 0.17 0.18 0.12 0.07 0.05 0.05 0.05 0.04 0.03 0.03 0.06 0.05 0.04 0.05 0.07 0.08 0.06 0.06 0.06 0.06 0.05 0.05 0.05 0.04 0.04 0.08 0.10 0.07 0.05 0.04 0.04 0.03 0.03 0.02 0.03 0.03 0.04 0.03 0.02 0.03 0.03
0.04 0.07 0.09 0.07 0.07 0.06 0.05 0.06 0.06 0.04 0.05 0.04 0.04 0.06 0.05 0.06 0.06 0.09 0.08 0.08 0.07 0.07 0.05 0.05 0.04 0.03 0.04 0.07 0.06 0.06 0.07 0.07 0.06 0.04 0.01 0.01 0.02 0.02 0.04 0.04 0.02 0.02 0.03
0.04 0.05 0.07 0.05 0.07 0.07 0.06 0.07 0.07 0.05 0.05 0.04 0.06 0.06 0.06 0.06 0.07 0.09 0.07 0.07 0.06 0.05 0.06 0.05 0.04 0.03 0.05 0.07 0.05 0.05 0.06 0.07 0.06 0.03 0.01 0.01 0.02 0.03 0.04 0.04 0.04 0.03 0.03
0.05 0.06 0.07 0.05 0.05 0.07 0.07 0.08 0.09 0.08 0.05 0.04 0.06 0.07 0.07 0.06 0.08 0.09 0.07 0.06 0.07 0.06 0.06 0.05 0.06 0.05 0.07 0.06 0.05 0.05 0.04 0.06 0.04 0.02 0.01 0.01 0.01 0.03 0.04 0.04 0.04 0.04 0.04
0.06 0.09 0.08 0.07 0.05 0.06 0.06 0.07 0.08 0.08 0.07 0.06 0.06 0.06 0.07 0.07 0.07 0.07 0.07 0.07 0.08 0.07 0.05 0.05 0.06 0.07 0.07 0.05 0.05 0.04 0.04 0.06 0.02 0.03 0.02 0.01 0.01 0.03 0.04 0.03 0.03 0.03 0.03
0.04 0.08 0.07 0.08 0.07 0.06 0.08 0.07 0.08 0.08 0.08 0.08 0.08 0.08 0.09 0.07 0.07 0.05 0.05 0.05 0.07 0.08 0.07 0.05 0.06 0.07 0.06 0.06 0.06 0.04 0.03 0.04 0.02 0.01 0.02 0.01 0.02 0.03 0.04 0.03 0.02 0.02 0.02
0.04 0.06 0.06 0.07 0.07 0.07 0.09 0.10 0.12 0.14 0.12 0.11 0.10 0.11 0.07 0.05 0.05 0.06 0.07 0.06 0.06 0.08 0.08 0.06 0.07 0.07 0.07 0.08 0.07 0.05 0.05 0.06 0.05 0.02 0.01 0.01 0.02 0.03 0.04 0.04 0.03 0.02 0.02
0.04 0.05 0.06 0.04 0.06 0.07 0.09 0.13 0.15 0.18 0.19 0.17 0.17 0.12 0.07 0.04 0.05 0.06 0.08 0.08 0.07 0.07 0.08 0.09 0.09 0.08 0.08 0.08 0.06 0.05 0.05 0.05 0.03 0.02 0.02 0.01 0.02 0.02 0.04 0.04 0.04 0.03 0.02
0.03 0.04 0.04 0.03 0.05 0.07 0.09 0.11 0.13 0.17 0.18 0.18 0.16 0.13 0.07 0.04 0.04 0.05 0.07 0.07 0.07 0.09 0.12 0.14 0.11 0.09 0.08 0.07 0.05 0.05 0.06 0.02 0.01 0.02 0.02 0.01 0.02 0.03 0.04 0.04 0.04 0.04 0.03
0.02 0.03 0.04 0.02 0.04 0.05 0.07 0.07 0.10 0.11 0.09 0.08 0.07 0.08 0.06 0.03 0.03 0.03 0.06 0.08 0.09 0.14 0.18 0.17 0.14 0.11 0.07 0.05 0.06 0.06 0.04 0.02 0.02 0.04 0.03 0.02 0.02 0.03 0.04 0.04 0.04 0.04 0.04
0.01 0.01 0.03 0.02 0.03 0.03 0.03 0.03 0.05 0.06 0.06 0.06 0.04 0.03 0.05 0.04 0.03 0.04 0.04 0.08 0.13 0.17 0.15 0.16 0.15 0.12 0.08 0.06 0.05 0.04 0.05 0.03 0.02 0.02 0.02 0.02 0.03 0.03 0.04 0.04 0.04 0.04 0.04
0.01 0.00 0.02 0.02 0.03 0.04 0.02 0.01 0.03 0.04 0.04 0.05 0.04 0.02 0.03 0.04 0.04 0.04 0.04 0.06 0.08 0.09 0.07 0.10 0.12 0.11 0.10 0.08 0.06 0.05 0.05 0.03 0.02 0.02 0.02 0.03 0.03 0.04 0.05 0.05 0.04 0.03 0.03
0.01 0.00 0.00 0.02 0.03 0.04 0.03 0.02 0.03 0.04 0.03 0.04 0.05 0.04 0.03 0.03 0.03 0.04 0.07 0.09 0.08 0.08 0.07 0.10 0.15 0.11 0.10 0.10 0.09 0.08 0.07 0.04 0.02 0.02 0.03 0.03 0.03 0.04 0.05 0.06 0.06 0.04 0.03
0.02 0.01 0.00 0.01 0.02 0.02 0.03 0.02 0.03 0.03 0.03 0.04 0.06 0.05 0.04 0.04 0.06 0.08 0.09 0.09 0.09 0.11 0.12 0.13 0.19 0.13 0.11 0.10 0.09 0.08 0.08 0.06 0.04 0.02 0.03 0.03 0.04 0.05 0.06 0.06 0.07 0.06 0.05
0.02 0.02 0.01 0.01 0.01 0.03 0.04 0.02 0.02 0.03 0.04 0.05 0.05 0.06 0.06 0.07 0.09 0.10 0.11 0.10 0.10 0.11 0.12 0.14 0.19 0.16 0.13 0.10 0.07 0.07 0.07 0.06 0.05 0.04 0.02 0.02 0.04 0.06 0.06 0.06 0.07 0.07 0.06
0.04 0.04 0.04 0.03 0.03 0.04 0.03 0.02 0.02 0.03 0.04 0.06 0.05 0.06 0.05 0.06 0.07 0.09 0.12 0.13 0.12 0.12 0.09 0.09 0.13 0.14 0.11 0.08 0.05 0.05 0.05 0.05 0.05 0.06 0.04 0.03 0.04 0.04 0.05 0.07 0.08 0.07 0.06
0.04 0.04 0.03 0.02 0.02 0.02 0.03 0.03 0.05 0.06 0.05 0.07 0.07 0.04 0.03 0.04 0.05 0.06 0.10 0.11 0.09 0.09 0.08 0.05 0.05 0.07 0.07 0.05 0.05 0.04 0.04 0.03 0.04 0.05 0.04 0.04 0.05 0.06 0.08 0.09 0.09 0.07 0.07
0.02 0.01 0.01 0.01 0.02 0.03 0.03 0.04 0.06 0.07 0.07 0.06 0.06 0.04 0.03 0.04 0.05 0.06 0.07 0.05 0.05 0.06 0.06 0.06 0.05 0.05 0.05 0.05 0.05 0.04 0.04 0.03 0.04 0.04 0.05 0.06 0.06 0.07 0.10 0.09 0.08 0.08 0.09
0.02 0.01 0.01 0.01 0.02 0.03 0.03 0.03 0.03 0.04 0.06 0.06 0.06 0.04 0.05 0.07 0.08 0.09 0.08 0.06 0.06 0.05 0.05 0.06 0.07 0.07 0.07 0.06 0.04 0.04 0.04 0.04 0.04 0.04 0.04 0.05 0.06 0.07 0.09 0.09 0.09 0.06 0.05
0.02 0.01 0.02 0.02 0.02 0.02 0.02 0.02 0.02 0.02 0.03 0.06 0.12 0.12 0.10 0.11 0.10 0.10 0.09 0.07 0.06 0.06 0.06 0.06 0.07 0.06 0.07 0.07 0.04 0.03 0.04 0.04 0.04 0.04 0.03 0.04 0.05 0.06 0.06 0.06 0.06 0.04 0.05
0.01 0.01 0.02 0.02 0.02 0.02 0.01 0.01 0.01 0.01 0.01 0.03 0.07 0.13 0.12 0.14 0.15 0.12 0.10 0.09 0.08 0.06 0.06 0.07 0.08 0.07 0.05 0.05 0.05 0.05 0.05 0.05 0.04 0.03 0.04 0.04 0.03 0.02 0.03 0.03 0.05 0.07 0.08
0.02 0.01 0.01 0.00 0.01 0.02 0.01 0.01 0.01 0.01 0.01 0.03 0.06 0.09 0.12 0.11 0.11 0.13 0.13 0.11 0.10 0.08 0.07 0.07 0.08 0.08 0.06 0.04 0.04 0.04 0.05 0.06 0.06 0.05 0.04 0.04 0.04 0.02 0.03 0.03 0.04 0.06 0.07
0.03 0.02 0.01 0.00 0.01 0.01 0.02 0.01 0.01 0.01 0.01 0.03 0.05 0.08 0.12 0.13 0.09 0.07 0.08 0.08 0.06 0.05 0.05 0.06 0.07 0.07 0.07 0.05 0.04 0.05 0.06 0.07 0.06 0.05 0.03 0.03 0.03 0.02 0.02 0.02 0.03 0.05 0.05
0.05 0.04 0.02 0.02 0.02 0.02 0.02 0.01 0.01 0.01 0.01 0.03 0.05 0.06 0.09 0.10 0.07 0.07 0.07 0.07 0.06 0.05 0.05 0.06 0.08 0.07 0.05 0.03 0.03 0.04 0.06 0.08 0.08 0.05 0.04 0.02 0.02 0.02 0.01 0.01 0.02 0.03 0.04
MSLP
1008.42 1007.85 1007.50 1007.42 1007.59 1007.93 1008.37 1008.83 1009.26 1009.63 1009.96 1010.28 1010.62 1011.02 1011.46 1011.95 1012.43 1012.88 1013.26 1013.55 1013.77 1013.93 1014.06 1014.19 1014.35 1014.55 1014.76 1014.99 1015.20 1015.39 1015.55 1015.68 1015.80 1015.92 1016.05 1016.19 1016.35 1016.52 1016.69 1016.85 1017.01 1017.15 1017.29
1008.38 1007.86 1007.56 1007.51 1007.68 1008.02 1008.44 1008.88 1009.30 1009.68 1010.02 1010.37 1010.76 1011.20 1011.69 1012.21 1012.72 1013.18 1013.57 1013.86 1014.08 1014.24 1014.38 1014.52 1014.69 1014.88 1015.08 1015.29 1015.48 1015.64 1015.78 1015.90 1016.02 1016.14 1016.28 1016.44 1016.61 1016.78 1016.94 1017.09 1017.23 1017.36 1017.49
1008.27 1007.84 1007.60 1007.59 1007.79 1008.13 1008.55 1008.99 1009.41 1009.79 1010.16 1010.54 1010.96 1011.43 1011.94 1012.47 1012.97 1013.42 1013.79 1014.08 1014.30 1014.47 1014.62 1014.78 1014.96 1015.16 1015.36 1015.56 1015.73 1015.87 1016.00 1016.12 1016.24 1016.38 1016.53 1016.70 1016.88 1017.04 1017.20 1017.33 1017.46 1017.58 1017.71
1008.12 1007.78 1007.63 1007.69 1007.93 1008.29 1008.72 1009.17 1009.59 1009.99 1010.38 1010.78 1011.22 1011.70 1012.21 1012.72 1013.19 1013.61 1013.96 1014.22 1014.44 1014.63 1014.81 1015.00 1015.20 1015.42 1015.63 1015.81 1015.97 1016.10 1016.22 1016.33 1016.46 1016.61 1016.78 1016.96 1017.14 1017.30 1017.44 1017.56 1017.67 1017.79 1017.92
1007.94 1007.72 1007.67 1007.81 1008.11 1008.51 1008.95 1009.40 1009.83 1010.24 1010.65 1011.07 1011.52 1012.00 1012.50 1012.97 1013.41 1013.78 1014.09 1014.34 1014.56 1014.76 1014.98 1015.20 1015.44 1015.68 1015.89 1016.08 1016.22 1016.33 1016.43 1016.54 1016.67 1016.82 1017.00 1017.19 1017.37 1017.52 1017.65 1017.75 1017.85 1017.96 1018.10
1007.78 1007.69 1007.75 1007.98 1008.34 1008.76 1009.22 1009.67 1010.11 1010.53 1010.95 1011.39 1011.85 1012.33 1012.80 1013.25 1013.64 1013.97 1014.25 1014.48 1014.70 1014.93 1015.17 1015.44 1015.71 1015.97 1016.19 1016.36 1016.48 1016.57 1016.64 1016.73 1016.85 1017.01 1017.19 1017.37 1017.54 1017.68 1017.79 1017.88 1017.96 1018.06 1018.20
1007.67 1007.71 1007.89 1008.20 1008.60 1009.05 1009.51 1009.95 1010.38 1010.80 1011.24 1011.70 1012.18 1012.67 1013.13 1013.56 1013.92 1014.22 1014.46 1014.68 1014.90 1015.14 1015.41 1015.71 1016.01 1016.28 1016.50 1016.66 1016.75 1016.80 1016.84 1016.91 1017.00 1017.14 1017.31 1017.49 1017.65 1017.77 1017.86 1017.93 1017.99 1018.08 1018.22
1007.66 1007.81 1008.10 1008.48 1008.91 1009.36 1009.80 1010.21 1010.63 1011.05 1011.50 1011.99 1012.50 1013.01 1013.49 1013.91 1014.25 1014.52 1014.74 1014.94 1015.16 1015.41 1015.70 1016.02 1016.34 1016.62 1016.82 1016.95 1017.01 1017.02 1017.02 1017.04 1017.11 1017.23 1017.38 1017.55 1017.69 1017.80 1017.87 1017.91 1017.95 1018.02 1018.15
1007.80 1008.05 1008.41 1008.83 1009.27 1009.69 1010.09 1010.47 1010.86 1011.28 1011.76 1012.28 1012.84 1013.39 1013.89 1014.32 1014.65 1014.91 1015.10 1015.28 1015.48 1015.72 1016.02 1016.34 1016.66 1016.93 1017.12 1017.22 1017.24 1017.21 1017.16 1017.14 1017.17 1017.27 1017.40 1017.55 1017.68 1017.78 1017.83 1017.85 1017.86 1017.91 1018.01
1008.11 1008.44 1008.85 1009.29 1009.70 1010.08 1010.42 1010.75 1011.11 1011.53 1012.02 1012.59 1013.20 1013.80 1014.34 1014.78 1015.12 1015.35 1015.51 1015.66 1015.83 1016.05 1016.33 1016.64 1016.95 1017.20 1017.38 1017.45 1017.43 1017.36 1017.27 1017.21 1017.21 1017.28 1017.39 1017.53 1017.65 1017.73 1017.77 1017.77 1017.76 1017.78 1017.85
1008.60 1008.99 1009.42 1009.85 1010.22 1010.54 1010.81 1011.09 1011.41 1011.82 1012.34 1012.95 1013.61 1014.26 1014.84 1015.30 1015.63 1015.84 1015.96 1016.06 1016.18 1016.36 1016.61 1016.89 1017.18 1017.42 1017.57 1017.62 1017.58 1017.48 1017.36 1017.26 1017.23 1017.26 1017.36 1017.48 1017.60 1017.68 1017.71 1017.70 1017.67 1017.66 1017.70
1009.26 1009.68 1010.12 1010.51 1010.83 1011.08 1011.29 1011.51 1011.80 1012.21 1012.74 1013.39 1014.09 1014.78 1015.39 1015.86 1016.17 1016.35 1016.43 1016.47 1016.54 1016.66 1016.86 1017.11 1017.37 1017.59 1017.72 1017.76 1017.70 1017.58 1017.43 1017.30 1017.24 1017.25 1017.32 1017.42 1017.53 1017.61 1017.65 1017.64 1017.61 1017.58 1017.59
1010.04 1010.47 1010.89 1011.25 1011.52 1011.71 1011.86 1012.03 1012.30 1012.70 1013.25 1013.92 1014.64 1015.35 1015.96 1016.43 1016.73 1016.86 1016.89 1016.88 1016.88 1016.95 1017.09 1017.30 1017.52 1017.73 1017.85 1017.88 1017.81 1017.67 1017.50 1017.35 1017.25 1017.22 1017.26 1017.34 1017.44 1017.52 1017.56 1017.56 1017.53 1017.50 1017.50
1010.87 1011.29 1011.69 1012.01 1012.23 1012.38 1012.49 1012.64 1012.90 1013.29 1013.84 1014.51 1015.24 1015.94 1016.54 1016.99 1017.26 1017.36 1017.34 1017.27 1017.22 1017.24 1017.33 1017.49 1017.69 1017.87 1017.98 1018.00 1017.93 1017.77 1017.58 1017.39 1017.24 1017.17 1017.16 1017.21 1017.28 1017.35 1017.40 1017.41 1017.40 1017.38 1017.38
1011.68 1012.07 1012.44 1012.73 1012.93 1013.05 1013.16 1013.31 1013.56 1013.95 1014.49 1015.14 1015.84 1016.51 1017.08 1017.49 1017.73 1017.80 1017.75 1017.65 1017.57 1017.54 1017.59 1017.72 1017.88 1018.04 1018.14 1018.15 1018.06 1017.88 1017.66 1017.43 1017.23 1017.08 1017.01 1017.00 1017.04 1017.09 1017.13 1017.17 1017.18 1017.18 1017.19
1012.40 1012.76 1013.09 1013.36 1013.55 1013.69 1013.81 1013.98 1014.25 1014.63 1015.15 1015.76 1016.40 1017.02 1017.53 1017.90 1018.11 1018.16 1018.10 1018.00 1017.90 1017.86 1017.89 1017.98 1018.12 1018.24 1018.31 1018.30 1018.19 1017.99 1017.73 1017.45 1017.18 1016.96 1016.81 1016.73 1016.70 1016.72 1016.75 1016.79 1016.82 1016.85 1016.89
1013.02 1013.32 1013.62 1013.87 1014.08 1014.25 1014.42 1014.63 1014.91 1015.29 1015.77 1016.32 1016.88 1017.41 1017.86 1018.18 1018.36 1018.41 1018.37 1018.29 1018.21 1018.17 1018.19 1018.26 1018.36 1018.45 1018.49 1018.44 1018.31 1018.08 1017.78 1017.44 1017.11 1016.81 1016.57 1016.40 1016.30 1016.26 1016.26 1016.30 1016.35 1016.40 1016.46
1013.52 1013.76 1014.02 1014.26 1014.49 1014.72 1014.95 1015.21 1015.52 1015.90 1016.32 1016.79 1017.25 1017.68 1018.04 1018.30 1018.46 1018.53 1018.52 1018.49 1018.45 1018.43 1018.46 1018.51 1018.58 1018.62 1018.62 1018.54 1018.37 1018.11 1017.79 1017.41 1017.02 1016.65 1016.33 1016.08 1015.89 1015.79 1015.74 1015.76 1015.81 1015.88 1015.95
1013.92 1014.10 1014.31 1014.56 1014.82 1015.11 1015.41 1015.73 1016.07 1016.42 1016.79 1017.16 1017.51 1017.82 1018.09 1018.29 1018.43 1018.52 1018.56 1018.58 1018.59 1018.61 1018.65 1018.68 1018.71 1018.72 1018.67 1018.55 1018.36 1018.09 1017.75 1017.35 1016.94 1016.52 1016.14 1015.81 1015.55 1015.37 1015.27 1015.25 1015.28 1015.34 1015.43
1014.25 1014.37 1014.55 1014.79 1015.09 1015.43 1015.80 1016.18 1016.54 1016.88 1017.18 1017.44 1017.67 1017.86 1018.02 1018.16 1018.28 1018.38 1018.47 1018.55 1018.62 1018.68 1018.72 1018.74 1018.73 1018.68 1018.59 1018.45 1018.25 1017.98 1017.66 1017.29 1016.88 1016.46 1016.04 1015.66 1015.34 1015.10 1014.94 1014.86 1014.85 1014.90 1014.97
1014.52 1014.59 1014.74 1014.98 1015.31 1015.71 1016.13 1016.55 1016.93 1017.25 1017.49 1017.65 1017.75 1017.82 1017.87 1017.94 1018.03 1018.15 1018.28 1018.40 1018.52 1018.60 1018.65 1018.65 1018.60 1018.51 1018.38 1018.22 1018.03 1017.80 1017.53 1017.21 1016.86 1016.47 1016.07 1015.68 1015.32 1015.03 1014.80 1014.66 1014.60 1014.61 1014.65
1014.74 1014.78 1014.90 1015.14 1015.49 1015.92 1016.39 1016.85 1017.24 1017.53 1017.71 1017.78 1017.77 1017.72 1017.68 1017.68 1017.74 1017.84 1018.00 1018.16 1018.30 1018.40 1018.44 1018.41 1018.32 1018.19 1018.04 1017.88 1017.71 1017.54 1017.35 1017.14 1016.88 1016.57 1016.22 1015.86 1015.49 1015.16 1014.89 1014.69 1014.57 1014.52 1014.51
1014.86 1014.89 1015.01 1015.24 1015.60 1016.05 1016.55 1017.03 1017.43 1017.70 1017.83 1017.82 1017.73 1017.59 1017.47 1017.40 1017.41 1017.51 1017.66 1017.83 1017.98 1018.08 1018.10 1018.04 1017.92 1017.76 1017.59 1017.45 1017.33 1017.23 1017.15 1017.05 1016.92 1016.72 1016.47 1016.16 1015.82 1015.48 1015.17 1014.91 1014.73 1014.62 1014.56
1014.87 1014.91 1015.02 1015.25 1015.60 1016.06 1016.56 1017.05 1017.45 1017.71 1017.82 1017.77 1017.62 1017.42 1017.23 1017.11 1017.08 1017.15 1017.29 1017.45 1017.60 1017.68 1017.68 1017.59 1017.44 1017.26 1017.09 1016.96 1016.89 1016.88 1016.91 1016.95 1016.95 1016.89 1016.74 1016.51 1016.22 1015.89 1015.57 1015.27 1015.04 1014.86 1014.74
1014.73 1014.80 1014.91 1015.13 1015.46 1015.90 1016.40 1016.88 1017.28 1017.55 1017.65 1017.58 1017.41 1017.18 1016.96 1016.80 1016.74 1016.78 1016.90 1017.04 1017.16 1017.22 1017.20 1017.09 1016.92 1016.73 1016.56 1016.46 1016.45 1016.52 1016.65 1016.81 1016.94 1017.01 1016.98 1016.84 1016.62 1016.32 1016.00 1015.68 1015.40 1015.18 1015.01
1014.44 1014.55 1014.66 1014.85 1015.15 1015.56 1016.03 1016.50 1016.90 1017.18 1017.29 1017.24 1017.08 1016.85 1016.62 1016.45 1016.37 1016.39 1016.48 1016.60 1016.70 1016.74 1016.70 1016.58 1016.40 1016.22 1016.06 1015.99 1016.02 1016.16 1016.37 1016.63 1016.87 1017.04 1017.12 1017.08 1016.92 1016.68 1016.38 1016.06 1015.76 1015.50 1015.29
Thickness
5796 5799 5799 5799 5798 5798 5798 5798 5797 5796 5795 5794 5792 5791 5789 5787 5784 5782 5781 5779 5778 5776 5775 5773 5772 5771 5770 5769 5767 5766 5764 5763 5761 5760 5759 5757 5756 5755 5755 5754 5753 5752 5751
5800 5800 5800 5800 5798 5797 5797 5796 5796 5795 5794 5792 5791 5789 5788 5786 5783 5781 5780 5778 5777 5776 5774 5773 5772 5771 5769 5768 5766 5765 5764 5762 5761 5760 5758 5757 5756 5755 5754 5753 5752 5751 5750
5801 5800 5799 5798 5797 5796 5796 5795 5794 5793 5792 5791 5790 5788 5786 5784 5782 5780 5779 5777 5776 5775 5774 5773 5771 5770 5769 5767 5766 5764 5763 5762 5760 5759 5758 5756 5755 5754 5753 5752 5751 5750 5749
5801 5799 5798 5797 5796 5795 5794 5794 5792 5792 5791 5789 5788 5787 5785 5783 5781 5780 5778 5777 5775 5774 5773 5772 5771 5769 5768 5766 5765 5764 5763 5761 5760 5759 5757 5756 5755 5754 5753 5752 5751 5749 5748
5800 5799 5797 5796 5795 5794 5793 5792 5791 5790 5789 5787 5786 5785 5783 5782 5780 5779 5777 5776 5775 5774 5772 5771 5770 5769 5767 5766 5764 5763 5762 5761 5760 5758 5757 5756 5755 5754 5752 5751 5750 5748 5747
5799 5798 5797 5795 5794 5793 5791 5790 5789 5788 5787 5786 5784 5783 5782 5781 5779 5778 5777 5776 5774 5773 5772 5771 5769 5768 5767 5766 5764 5763 5762 5761 5760 5758 5757 5756 5755 5754 5752 5751 5750 5748 5746
5797 5797 5796 5794 5793 5791 5790 5789 5787 5787 5786 5784 5783 5782 5780 5779 5778 5777 5776 5775 5773 5772 5771 5770 5769 5767 5766 5765 5764 5763 5762 5761 5759 5758 5757 5756 5755 5754 5753 5751 5750 5748 5746
5797 5796 5794 5793 5791 5790 5788 5788 5786 5785 5784 5783 5782 5780 5779 5778 5777 5776 5775 5773 5772 5771 5770 5769 5768 5767 5766 5765 5764 5763 5762 5761 5760 5758 5757 5756 5755 5754 5753 5751 5750 5748 5747
5796 5795 5793 5792 5790 5789 5787 5786 5785 5783 5782 5781 5780 5779 5778 5777 5776 5775 5774 5772 5771 5770 5769 5768 5767 5766 5765 5765 5764 5763 5762 5761 5760 5759 5758 5757 5756 5755 5753 5752 5750 5748 5747
5794 5793 5792 5790 5789 5787 5786 5785 5783 5782 5781 5780 5778 5777 5776 5775 5775 5774 5773 5772 5771 5770 5769 5768 5767 5766 5765 5764 5763 5763 5762 5761 5760 5759 5758 5758 5757 5755 5754 5752 5751 5749 5748
5790 5790 5790 5789 5787 5786 5784 5783 5781 5781 5779 5778 5777 5776 5775 5774 5773 5773 5772 5771 5770 5769 5768 5768 5766 5765 5765 5764 5763 5762 5762 5761 5760 5759 5759 5758 5757 5756 5755 5753 5752 5750 5748
5786 5788 5788 5787 5786 5784 5783 5781 5780 5778 5777 5776 5775 5774 5773 5772 5772 5772 5771 5770 5769 5769 5768 5767 5766 5765 5764 5763 5763 5762 5761 5761 5760 5760 5759 5759 5758 5757 5755 5754 5752 5751 5749
5787 5787 5787 5786 5784 5783 5781 5780 5778 5777 5775 5774 5773 5773 5772 5771 5770 5770 5770 5769 5768 5767 5767 5766 5765 5764 5763 5763 5762 5762 5762 5761 5761 5760 5759 5759 5759 5757 5756 5754 5753 5752 5750
5787 5786 5786 5785 5783 5782 5780 5779 5777 5775 5774 5773 5772 5771 5771 5770 5769 5769 5768 5768 5767 5766 5765 5765 5764 5764 5763 5763 5762 5762 5762 5762 5761 5761 5760 5760 5759 5758 5757 5755 5754 5753 5751
5786 5786 5785 5785 5783 5781 5779 5778 5776 5774 5773 5772 5771 5770 5770 5769 5768 5768 5767 5766 5766 5765 5764 5764 5763 5763 5762 5762 5762 5762 5762 5762 5761 5761 5760 5760 5760 5759 5757 5756 5755 5753 5752
5787 5786 5786 5784 5783 5781 5779 5777 5775 5774 5772 5771 5770 5769 5769 5768 5767 5767 5766 5765 5765 5764 5763 5763 5763 5762 5762 5762 5762 5761 5761 5761 5761 5761 5760 5760 5760 5759 5758 5757 5755 5754 5753
5787 5786 5785 5784 5783 5780 5778 5777 5775 5773 5772 5770 5769 5769 5768 5767 5766 5765 5765 5764 5764 5763 5763 5762 5762 5761 5761 5761 5760 5760 5760 5760 5760 5760 5760 5760 5759 5759 5758 5757 5756 5755 5754
5788 5786 5785 5785 5782 5780 5778 5776 5775 5773 5771 5770 5769 5768 5767 5766 5765 5764 5764 5764 5763 5762 5761 5761 5760 5759 5759 5758 5758 5759 5759 5759 5760 5760 5759 5759 5759 5758 5758 5758 5757 5756 5755
5788 5786 5784 5783 5781 5779 5778 5776 5774 5772 5771 5770 5769 5768 5767 5766 5765 5764 5763 5762 5762 5761 5760 5759 5759 5758 5756 5755 5756 5757 5757 5758 5759 5759 5759 5758 5758 5757 5757 5757 5756 5755 5754
5788 5786 5784 5782 5781 5779 5777 5775 5773 5771 5770 5769 5768 5768 5767 5766 5764 5763 5762 5761 5760 5759 5758 5757 5756 5756 5755 5754 5754 5754 5755 5756 5757 5757 5757 5757 5756 5756 5756 5756 5755 5754 5754
5786 5784 5783 5781 5780 5778 5775 5772 5770 5768 5768 5768 5768 5767 5767 5766 5764 5763 5761 5760 5759 5757 5756 5756 5754 5752 5751 5752 5749 5748 5751 5754 5754 5755 5755 5754 5754 5754 5754 5753 5753 5753 5752
5785 5783 5782 5780 5779 5778 5776 5774 5772 5770 5768 5768 5767 5767 5766 5765 5764 5763 5761 5759 5758 5756 5755 5754 5752 5750 5749 5749 5745 5742 5741 5744 5749 5752 5752 5752 5752 5752 5752 5752 5751 5751 5751
5785 5784 5783 5780 5779 5778 5776 5774 5771 5769 5767 5766 5765 5765 5765 5764 5764 5762 5761 5759 5757 5756 5754 5753 5752 5749 5746 5746 5745 5741 5736 5734 5739 5746 5748 5750 5750 5750 5750 5750 5749 5749 5749
5786 5785 5783 5780 5778 5777 5775 5772 5769 5765 5763 5763 5764 5764 5764 5763 5762 5761 5760 5759 5757 5755 5754 5753 5752 5749 5746 5743 5743 5742 5741 5739 5734 5736 5742 5745 5747 5747 5747 5747 5747 5747 5747
5787 5785 5782 5780 5777 5776 5774 5772 5768 5765 5764 5763 5763 5762 5761 5761 5760 5760 5758 5757 5755 5754 5753 5752 5751 5749 5747 5743 5741 5739 5737 5736 5735 5732 5733 5738 5741 5743 5744 5745 5745 5746 5746
5787 5785 5782 5779 5776 5775 5772 5770 5768 5765 5763 5761 5760 5759 5758 5758 5758 5758 5757 5755 5754 5753 5752 5751 5750 5748 5746 5744 5741 5739 5736 5734 5732 5731 5730 5732 5734 5739 5742 5743 5743 5743 5743